Lexington Weather

Lexington, Massachusetts, USA

46°F
10/22/2019 2:00am 
  • Lexington Conditions: Few Clouds
  • Temperature: 46.0°F / 7.8°CWarmer 0.5°F than last hour.
  • Dew Point: 44.4°FIncreased 1.4°Fsince last hour.
  • Relative Humidity: 94%Increased 3.0% since last hour.
  • Wind: Calm, 10-min avg: Calm, gust: None
  • Barometer: 30.12 in Steady
  • Visibility: 10 miles
  • Rain Today: 0.00 in
  •   

Regional Weather Roundup
for Boston, MA

        
000
ASUS41 KBOX 201410
RWRBOX

REGIONAL WEATHER ROUNDUP
NATIONAL WEATHER SERVICE BOSTON/NORTON MA
1000 AM EDT SUN OCT 20 2019

NOTE:  "FAIR" INDICATES FEW OR NO CLOUDS BELOW 12,000 FEET WITH NO 
SIGNIFICANT WEATHER AND/OR OBSTRUCTIONS TO VISIBILITY.

MAZALL-201500-
EASTERN MASSACHUSETTS
  
CITY           SKY/WX    TMP DP  RH WIND       PRES   REMARKS
BOSTON         PTSUNNY   54  43  66 CALM      30.10R                  
BEVERLY        FAIR      49  43  80 N3        30.10R                  
LAWRENCE       FAIR      45  41  86 CALM      30.13R                  
BEDFORD        PTSUNNY   49  40  71 NW3       30.10R                  
BLUE HILL      NOT AVBL                                               
NORWOOD        FAIR      48  39  71 CALM      30.10S                  
MARSHFIELD     FAIR      57  50  77 CALM      30.10R                  
PLYMOUTH       FAIR      53  48  83 CALM      30.10R                  
TAUNTON        FAIR      47  40  76 CALM      30.10R                  
NEW BEDFORD    FAIR      50  45  83 CALM      30.09R                  
$$

MAZALL-201500-
CAPE COD AND THE ISLANDS
  
CITY           SKY/WX    TMP DP  RH WIND       PRES   REMARKS
FALMOUTH       SUNNY     52  46  82 CALM      30.09R                  
HYANNIS        FAIR      55  49  80 VRB3      30.09R                  
CHATHAM        NOT AVBL                                               
PROVINCETOWN   FAIR      56  49  77 SE6         N/A                   
NANTUCKET      FAIR      58  50  75 S9        30.10R                  
MARTHAS VNYRD  FAIR      58  51  78 SE5       30.09R                  
$$
 
MAZALL-201500-
CENTRAL AND WESTERN MASSACHUSETTS
  
CITY           SKY/WX    TMP DP  RH WIND       PRES   REMARKS
WORCESTER      FAIR      46  37  71 NE3       30.10R                  
FITCHBURG      FAIR      47  37  68 W3        30.12R                  
ORANGE         FAIR      43  37  79 CALM      30.11R                  
SPRINGFIELD    PTSUNNY   44  38  79 CALM      30.09R                  
WESTFIELD      FAIR      45  37  73 CALM      30.11R                  
NORTH ADAMS    FAIR      48  34  58 SE12      30.07R                  
PITTSFIELD     FAIR      43  37  79 NE3       30.06R                  
$$
 
RIZALL-201500-
RHODE ISLAND
  
CITY           SKY/WX    TMP DP  RH WIND       PRES   REMARKS
PROVIDENCE     PTSUNNY   49  42  77 CALM      30.11R                  
NEWPORT        FAIR      51  46  83 W3        30.10R                  
BLOCK ISLAND   FAIR      56  49  77 E3        30.10R                  
SMITHFIELD     FAIR     N/A N/A N/A CALM      30.11R                  
WESTERLY       FAIR      50  44  80 N3        30.11R                  
$$
 
CTZALL-201500-
CONNECTICUT
  
CITY           SKY/WX    TMP DP  RH WIND       PRES   REMARKS
BRADLEY INTL   PTSUNNY   47  37  68 CALM      30.11R                  
HARTFORD       FAIR      44  39  82 CALM      30.11R                  
BRIDGEPORT     FAIR      52  44  74 NE5       30.08R                  
DANBURY        FAIR      45  40  82 CALM      30.09R                  
GROTON         FAIR      51  43  74 N5        30.10R                  
NEW HAVEN      FAIR      51  43  74 NE7       30.08S                  
CHESTER        FAIR      52  41  66 CALM      30.09R                  
MERIDEN        FAIR      47  39  74 NE6       30.09F                  
WILLIMANTIC    FAIR      42  39  89 CALM      30.12R                  
OXFORD         FAIR      47  40  76 E6        30.08S                  
$$

MEZ002-015-021-024-NHZ003-005-008-011-012-014-VTZ005-008-201500-
NORTHERN NEW ENGLAND
  
CITY           SKY/WX    TMP DP  RH WIND       PRES   REMARKS
PORTLAND ME    PTSUNNY   44  36  73 N3        30.12S                  
BANGOR ME      FAIR      45  36  70 CALM      30.13R                  
CONCORD NH     FAIR      39  35  86 CALM      30.12R                  
MANCHESTER NH  PTSUNNY   42  36  79 CALM      30.11R                  
NASHUA NH      FAIR      42  37  82 NW6       30.13R                  
PORTSMOUTH NH  PTSUNNY   47  39  75 N3        30.09S                  
JAFFREY NH     FAIR      43  36  76 CALM      30.10R                  
KEENE NH       FAIR      40  38  93 CALM      30.11S                  
BURLINGTON VT  CLOUDY    43  37  79 SW3       30.04F                  
MT. WASHINGTON NOT AVBL                                               
$$

NYZ052-076-201500-
EASTERN NEW YORK
  
CITY           SKY/WX    TMP DP  RH WIND       PRES   REMARKS
ALBANY         CLOUDY    42  38  85 CALM      30.08R                  
NEW YORK CITY  CLOUDY    55  50  83 NE8       30.05F                  
$$
 
ANZALL-201500-
MARINE OBSERVATIONS
  
STATION/POSITION TIME  TEMP    WIND        PRES    VSBY  WAVE
                       AIR SEA DIR/SP/G                  HT/PER
                 (UTC) (F)     (DEG/KT/KT) (MB)    (MI)  (FT/S)
BOSTON BUOY      1350   55 56   90/  6/  6 1018.4R         1/ 9
BUZZARDS BAY     1300   55      80/  6/  7 1019.1R
NANTUCKET SOUND  1340      56                N/A           0
MASS BAY-STELLWA NOT AVBL
ISLE OF SHOALS   1300   50      30/ 10/ 12 1018.7R
S OF BLOCK IS    1330      60                N/A           1/13
$$

......................KEY.........................
  SKY/WX - SKY CONDITION/PRESENT WEATHER
  TMP    - TEMPERATURE IN FAHRENHEIT
  DWPT   - DEWPOINT IN FAHRENHEIT
  RH     - RELATIVE HUMIDITY IN PERCENT
  WIND   - DIRECTION AND SPEED IN MPH
  PRES   - MEAN SEA LEVEL PRESSURE IN INCHES OF HG
  WCI    - WIND CHILL INDEX
  VSB    - VISIBILITY IN MILES
  HX     - HEAT INDEX
  TC     - TEMPERATURE IN CELSIUS
  VRB    - VARIABLE WIND DIRECTION
  N/A    - NOT AVAILABLE
  
      

Other recent Regional Weather Roundups

Tue Oct 22, 1:10am

Tue Oct 22, 1:00am

Tue Oct 22, 12:10am

Tue Oct 22, 12:00am

Mon Oct 21, 11:10pm

Mon Oct 21, 11:00pm

Mon Oct 21, 10:10pm

Mon Oct 21, 10:01pm

Mon Oct 21, 9:10pm

Mon Oct 21, 9:00pm

Mon Oct 21, 8:10pm

Mon Oct 21, 8:00pm

Mon Oct 21, 7:10pm

Mon Oct 21, 7:01pm

Mon Oct 21, 6:10pm

Mon Oct 21, 6:01pm

Mon Oct 21, 5:10pm

Mon Oct 21, 5:01pm

Mon Oct 21, 4:10pm

Mon Oct 21, 4:00pm

Mon Oct 21, 3:10pm

Mon Oct 21, 3:01pm

Mon Oct 21, 2:10pm

Mon Oct 21, 2:00pm

Mon Oct 21, 1:10pm

Mon Oct 21, 1:01pm

Mon Oct 21, 12:10pm

Mon Oct 21, 12:00pm

Mon Oct 21, 11:10am

Mon Oct 21, 11:00am

Mon Oct 21, 10:10am

Mon Oct 21, 10:00am

Mon Oct 21, 9:10am

Mon Oct 21, 9:00am

Mon Oct 21, 7:10am

Mon Oct 21, 7:00am

Mon Oct 21, 6:10am

Mon Oct 21, 6:00am

Mon Oct 21, 5:10am

Mon Oct 21, 5:00am

Mon Oct 21, 4:10am

Mon Oct 21, 4:00am

Mon Oct 21, 3:10am

Mon Oct 21, 3:00am

Mon Oct 21, 2:10am

Mon Oct 21, 2:01am

Mon Oct 21, 1:10am

Mon Oct 21, 1:00am

Mon Oct 21, 12:10am

Mon Oct 21, 12:00am

Sun Oct 20, 11:10pm

Sun Oct 20, 11:00pm

Sun Oct 20, 10:10pm

Sun Oct 20, 10:00pm

Sun Oct 20, 9:10pm

Sun Oct 20, 9:01pm

Sun Oct 20, 8:10pm

Sun Oct 20, 8:00pm

Sun Oct 20, 7:10pm

Sun Oct 20, 7:01pm

Sun Oct 20, 6:10pm

Sun Oct 20, 6:00pm

Sun Oct 20, 5:10pm

Sun Oct 20, 5:00pm

Sun Oct 20, 4:10pm

Sun Oct 20, 4:00pm

Sun Oct 20, 3:10pm

Sun Oct 20, 3:00pm

Sun Oct 20, 2:10pm

Sun Oct 20, 2:01pm

Sun Oct 20, 1:10pm

Sun Oct 20, 1:01pm

Sun Oct 20, 12:10pm

Sun Oct 20, 12:00pm

Sun Oct 20, 11:10am

Sun Oct 20, 11:00am

Sun Oct 20, 10:00am

Sun Oct 20, 9:10am

Sun Oct 20, 9:00am

Sun Oct 20, 8:10am

Sun Oct 20, 8:00am

Sun Oct 20, 7:10am

Sun Oct 20, 7:00am

Sun Oct 20, 6:10am

Sun Oct 20, 6:00am

Sun Oct 20, 5:10am

Sun Oct 20, 5:00am

Sun Oct 20, 4:10am

Sun Oct 20, 4:00am

Sun Oct 20, 3:10am

Sun Oct 20, 3:00am

Sun Oct 20, 2:10am

Sun Oct 20, 2:00am

Sun Oct 20, 1:10am

Sun Oct 20, 1:00am

Sun Oct 20, 12:10am

Sun Oct 20, 12:00am

Sat Oct 19, 11:10pm

Sat Oct 19, 11:00pm

Sat Oct 19, 10:10pm

Sat Oct 19, 10:00pm

Sat Oct 19, 9:10pm

Sat Oct 19, 9:00pm

Sat Oct 19, 8:10pm

Sat Oct 19, 8:00pm

Sat Oct 19, 7:10pm

Sat Oct 19, 7:00pm

Sat Oct 19, 6:10pm

Sat Oct 19, 6:00pm

Sat Oct 19, 5:10pm

Sat Oct 19, 5:00pm

Sat Oct 19, 4:10pm

Sat Oct 19, 4:00pm

Sat Oct 19, 3:10pm

Sat Oct 19, 3:01pm

Sat Oct 19, 2:10pm

Sat Oct 19, 2:00pm

Sat Oct 19, 1:10pm

Sat Oct 19, 1:01pm

Sat Oct 19, 12:10pm

Sat Oct 19, 12:00pm

Sat Oct 19, 11:10am

Sat Oct 19, 11:01am

Sat Oct 19, 10:10am

Sat Oct 19, 10:00am

Sat Oct 19, 9:10am

Sat Oct 19, 9:00am

Sat Oct 19, 8:10am

Sat Oct 19, 8:00am

Sat Oct 19, 7:10am

Sat Oct 19, 7:00am

Sat Oct 19, 6:10am

Sat Oct 19, 6:00am

Sat Oct 19, 5:10am

Sat Oct 19, 5:00am

Sat Oct 19, 4:10am

Sat Oct 19, 4:00am

Sat Oct 19, 3:10am

Sat Oct 19, 3:00am

Sat Oct 19, 2:10am

Sat Oct 19, 2:00am

Meta data:

ID: c429ddcf-87b7-412d-a3e0-164cff608372
Link: https://api.weather.gov/products/c429ddcf-87b7-412d-a3e0-164cff608372